Flag for Brazil Weather past 2 weeks in Brasilia, Distrito Federal, Brazil

Now
77 °F

Clear.


Feels Like: 78 °F
Forecast: 69 / 89 °F
Wind: No wind

Location: Brasilia Aeroporto

Current Time: Sep 18, 2014 at 11:50:47 PM

Latest Report: Sep 18, 2014 at 11:00 PM


Visibility: 10 mi

Pressure: 30.09 "Hg

Humidity: 39%

Dew point: 50 °F

Location of BrasiliaLocation

Historic Weather in Brasilia — Graph

°F

Brasilia temperature yesterday

Maximum temperature yesterday: 93 °F (at 3:00 PM)
Minimum temperature yesterday: 68 °F (at 7:00 AM)
Average temperature yesterday: 82 °F

Past Weeks' High & Low Weather Summary

 TemperatureHumidityPressure
High93 °F (Sep 17, 3:00 PM)83% (Sep 4, 3:00 AM)30.27 "Hg (Sep 4, 3:00 AM)
Low57 °F (Sep 6, 6:00 AM)13% (Sep 11, 4:00 PM)30.01 "Hg (Sep 12, 4:00 PM)
Average76 °F39%30.12 "Hg
* Reported Sep 3 11:00 PM — Sep 18 11:00 PM, Brasilia, Weather by CustomWeather, © 2014

Note: Actual official high and low records may vary slightly from our data, if they occured in-between our weather recording intervals... More about our weather records

Advertising

Brasilia weather history for previous 24 hours

 ConditionsComfort  
Time TempWeatherWind HumidityBarometerVisibility
11:00 PM
Sep 18
77 °FClear.No wind39%30.09 "Hg10 mi
10:00 PM79 °FClear.8 mph34%30.09 "Hg10 mi
9:00 PM81 °FClear.8 mph32%30.07 "Hg10 mi
8:00 PM82 °FClear.12 mph28%30.04 "Hg10 mi
7:00 PM84 °FClear.13 mph25%30.04 "HgN/A
6:00 PM88 °FPassing clouds.13 mph21%30.01 "HgN/A
5:00 PM90 °FSleet. Scattered clouds.13 mph20%30.01 "HgN/A
4:00 PM93 °FScattered clouds.13 mph17%30.01 "HgN/A
3:00 PM91 °FScattered clouds.10 mph20%30.01 "HgN/A
2:00 PM91 °FPassing clouds.14 mph18%30.04 "HgN/A
1:00 PM90 °FPassing clouds.14 mph21%30.09 "HgN/A
12:00 PM88 °FSunny.12 mph24%30.12 "Hg10 mi
11:00 AM86 °FSunny.15 mph25%30.15 "Hg10 mi
10:00 AM82 °FSunny.14 mph30%30.15 "Hg10 mi
9:00 AM79 °FSunny.12 mph37%30.18 "Hg10 mi
8:00 AM77 °FSunny.7 mph36%30.15 "Hg10 mi
7:00 AM73 °FSunny.2 mph47%30.12 "Hg10 mi
6:00 AM73 °FClear.2 mph44%30.12 "Hg10 mi
5:00 AM72 °FClear.8 mph44%30.09 "Hg10 mi
4:00 AM73 °FClear.3 mph41%30.07 "Hg10 mi
3:00 AM72 °FClear.No wind41%30.07 "Hg10 mi
2:00 AM73 °FClear.5 mph41%30.04 "Hg10 mi
1:00 AM77 °FClear.5 mph39%30.07 "Hg10 mi
12:00 AM77 °FClear.3 mph36%30.09 "Hg10 mi
11:00 PM
Sep 17
77 °FClear.3 mph39%30.09 "Hg10 mi
Weather by CustomWeather, © 2014

See weather overviewHow to use our weather pages